Location: Waco, TX
(31.5480°N, 97.1670°W)
Time: 15:30:24
(UTC-05:00)

ISS - Pass Details

Date: 17 August 2019
Orbit: 410 x 421 km, 51.6° (Epoch: 22 August)

Event Time Altitude Azimuth Distance (km) Brightness Sun altitude
Rises 18:32:47 0° 292° (WNW) 2,364 1.4 19.5°
Reaches altitude 10° 18:35:47 10° 263° (W) 1,495 1.1 18.9°
Maximum altitude 18:37:23 13° 234° (SW) 1,329 -0.3 18.6°
Drops below altitude 10° 18:38:58 10° 206° (SSW) 1,489 -0.6 18.2°
Sets 18:41:57 0° 176° (S) 2,345 0.0 17.6°
